Weather History for PABL - October, 2012

Change the Weather History Date:

Saturday, October 13, 2012

  Actual Average (PASK) Record (PASK)
Temperature  
Mean Temperature 26 °F -  
Max Temperature 33 °F 25 °F 39 °F (2013)
Min Temperature 19 °F 17 °F 3 °F (1996)
Degree Days  
Heating Degree Days 39    
Moisture  
Dew Point 21 °F    
Average Humidity 77    
Maximum Humidity 93    
Minimum Humidity 56    
Precipitation  
Precipitation 0.00 in - - ()
Sea Level Pressure  
Sea Level Pressure 29.71 in    
Wind  
Wind Speed 5 mph (NNW)    
Max Wind Speed 9 mph    
Max Gust Speed -    
Visibility 10 miles    
Events      
Averages and records for this station are not official NWS values.
T = Trace of Precipitation, MM = Missing Value Source: NWS Daily Summary

Daily Weather History Graph

Daily Weather History Graph

Search for Another Location

Airport or City:

Trip Planner

Search our weather history database for the weather conditions in past years. The results will help you decide how hot, cold, wet, or windy it might be!

Date:

Astronomy

Oct. 13, 2012 Rise Set
Actual Time 9:36 AM AKDT 7:23 PM AKDT
Civil Twilight 8:44 AM AKDT 8:15 PM AKDT
Nautical Twilight 7:45 AM AKDT 9:14 PM AKDT
Astronomical Twilight 6:44 AM AKDT 10:14 PM AKDT
Moon 7:10 AM AKDT (10/13) 6:30 PM AKDT (10/13)
Length of Visible Light 11h 30m
Length of Day
9h 46m
Waning Crescent, 4% of the Moon is Illuminated
Oct 13
Waning Crescent
Oct 15
New
Oct 21
First Quarter
Oct 29
Full
Nov 6
Last Quarter

Hourly Weather History & Observations

Time (AKDT) Temp. Windchill Dew Point Humidity Pressure Visibility Wind Dir Wind Speed Gust Speed Precip Events Conditions
12:16 AM 24.8 °F 19.1 °F 17.6 °F 74% 29.81 in 10.0 mi NNW 4.6 mph - N/A   Clear
12:36 AM 24.8 °F 16.1 °F 19.4 °F 80% 29.80 in 10.0 mi NW 8.1 mph - N/A   Clear
12:56 AM 24.8 °F 16.9 °F 17.6 °F 74% 29.81 in 10.0 mi NNW 6.9 mph - N/A   Clear
1:16 AM 23.0 °F 14.7 °F 17.6 °F 80% 29.80 in 10.0 mi NNW 6.9 mph - N/A   Clear
1:36 AM 24.8 °F 15.3 °F 19.4 °F 80% 29.80 in 10.0 mi NW 9.2 mph - N/A   Clear
2:16 AM 23.0 °F 13.9 °F 17.6 °F 80% 29.80 in 10.0 mi NNW 8.1 mph - N/A   Clear
2:36 AM 23.0 °F 13.1 °F 19.4 °F 86% 29.80 in 10.0 mi North 9.2 mph - N/A   Clear
2:56 AM 21.2 °F 10.9 °F 17.6 °F 86% 29.79 in 10.0 mi NNW 9.2 mph - N/A   Clear
3:16 AM 21.2 °F 12.6 °F 17.6 °F 86% 29.80 in 10.0 mi West 6.9 mph - N/A   Clear
3:36 AM 19.4 °F 14.3 °F 12.2 °F 74% 29.79 in 10.0 mi WNW 3.5 mph - N/A   Partly Cloudy
3:56 AM 21.2 °F 11.7 °F 15.8 °F 80% 29.79 in 10.0 mi NW 8.1 mph - N/A   Mostly Cloudy
4:16 AM 21.2 °F 12.6 °F 17.6 °F 86% 29.79 in 10.0 mi NW 6.9 mph - N/A   Overcast
4:56 AM 23.0 °F 18.4 °F 17.6 °F 80% 29.79 in 10.0 mi NW 3.5 mph - N/A   Overcast
5:16 AM 24.8 °F 17.9 °F 17.6 °F 74% 29.78 in 10.0 mi NW 5.8 mph - N/A   Overcast
5:36 AM 24.8 °F 19.1 °F 19.4 °F 80% 29.78 in 10.0 mi WNW 4.6 mph - N/A   Overcast
5:56 AM 24.8 °F - 19.4 °F 80% 29.77 in 10.0 mi Calm Calm - N/A   Overcast
6:56 AM 26.6 °F - 19.4 °F 74% 29.76 in 10.0 mi Calm Calm - N/A   Overcast
7:16 AM 26.6 °F - 19.4 °F 74% 29.76 in 10.0 mi Calm Calm - N/A   Overcast
7:36 AM 26.6 °F 22.6 °F 19.4 °F 74% 29.76 in 10.0 mi NNW 3.5 mph - N/A   Overcast
7:56 AM 24.8 °F 19.1 °F 21.2 °F 86% 29.76 in 10.0 mi West 4.6 mph - N/A   Overcast
8:16 AM 26.6 °F 22.6 °F 21.2 °F 80% 29.76 in 10.0 mi South 3.5 mph - N/A   Overcast
8:36 AM 26.6 °F - 19.4 °F 74% 29.75 in 10.0 mi Calm Calm - N/A   Overcast
8:56 AM 26.6 °F - 21.2 °F 80% 29.75 in 10.0 mi Calm Calm - N/A   Overcast
9:16 AM 26.6 °F - 21.2 °F 80% 29.75 in 10.0 mi Calm Calm - N/A   Overcast
9:36 AM 26.6 °F - 21.2 °F 80% 29.74 in 10.0 mi Calm Calm - N/A   Overcast
9:56 AM 26.6 °F - 21.2 °F 80% 29.73 in 10.0 mi Calm Calm - N/A   Overcast
10:16 AM 26.6 °F 22.6 °F 21.2 °F 80% 29.74 in 10.0 mi NNW 3.5 mph - N/A   Overcast
10:36 AM 24.8 °F - 21.2 °F 86% 29.74 in 10.0 mi Calm Calm - N/A   Overcast
10:56 AM 26.6 °F 20.0 °F 23.0 °F 86% 29.73 in 10.0 mi NNW 5.8 mph - N/A   Overcast
11:16 AM 26.6 °F 22.6 °F 23.0 °F 86% 29.74 in 10.0 mi North 3.5 mph - N/A   Overcast
11:36 AM 26.6 °F 22.6 °F 21.2 °F 80% 29.73 in 10.0 mi NW 3.5 mph - N/A   Overcast
11:56 AM 26.6 °F - 23.0 °F 86% 29.73 in 10.0 mi Calm Calm - N/A   Overcast
12:36 PM 28.4 °F 24.6 °F 21.2 °F 74% 29.73 in 10.0 mi NW 3.5 mph - N/A   Overcast
1:16 PM 28.4 °F 24.6 °F 23.0 °F 80% 29.72 in 10.0 mi North 3.5 mph - N/A   Overcast
1:36 PM 30.2 °F 26.7 °F 24.8 °F 80% 29.71 in 10.0 mi NNW 3.5 mph - N/A   Overcast
1:56 PM 30.2 °F 24.3 °F 24.8 °F 80% 29.71 in 10.0 mi NNW 5.8 mph - N/A   Overcast
2:16 PM 32.0 °F 25.6 °F 24.8 °F 75% 29.70 in 10.0 mi NNW 6.9 mph - N/A   Overcast
2:36 PM 32.0 °F 27.5 °F 24.8 °F 75% 29.70 in 10.0 mi NNW 4.6 mph - N/A   Overcast
2:56 PM 32.0 °F 26.4 °F 23.0 °F 69% 29.69 in 10.0 mi NNW 5.8 mph - N/A   Overcast
3:16 PM 33.8 °F 27.0 °F 24.8 °F 70% 29.69 in 10.0 mi North 8.1 mph - N/A   Overcast
3:36 PM 33.8 °F 27.7 °F 23.0 °F 65% 29.68 in 10.0 mi NNW 6.9 mph - N/A   Overcast
3:56 PM 33.8 °F 27.0 °F 21.2 °F 60% 29.68 in 10.0 mi North 8.1 mph - N/A   Overcast
4:16 PM 33.8 °F 26.4 °F 21.2 °F 60% 29.67 in 10.0 mi NNW 9.2 mph - N/A   Overcast
4:36 PM 33.8 °F 27.7 °F 21.2 °F 60% 29.67 in 10.0 mi North 6.9 mph - N/A   Overcast
4:56 PM 33.8 °F 27.0 °F 21.2 °F 60% 29.66 in 10.0 mi NNW 8.1 mph - N/A   Overcast
5:56 PM 33.8 °F 29.6 °F 19.4 °F 56% 29.65 in 10.0 mi NNW 4.6 mph - N/A   Overcast
6:16 PM 32.0 °F 28.7 °F 21.2 °F 64% 29.65 in 10.0 mi NNW 3.5 mph - N/A   Overcast
6:36 PM 32.0 °F 28.7 °F 19.4 °F 60% 29.65 in 10.0 mi North 3.5 mph - N/A   Overcast
6:56 PM 30.2 °F 26.7 °F 21.2 °F 69% 29.64 in 10.0 mi North 3.5 mph - N/A   Overcast
7:16 PM 30.2 °F 25.4 °F 21.2 °F 69% 29.64 in 10.0 mi NW 4.6 mph - N/A   Overcast
7:56 PM 30.2 °F - 21.2 °F 69% 29.63 in 10.0 mi Calm Calm - N/A   Overcast
8:16 PM 30.2 °F 26.7 °F 21.2 °F 69% 29.63 in 10.0 mi NW 3.5 mph - N/A   Overcast
8:36 PM 30.2 °F - 23.0 °F 75% 29.63 in 10.0 mi Calm Calm - N/A   Overcast
9:16 PM 28.4 °F 24.6 °F 24.8 °F 86% 29.62 in 10.0 mi WNW 3.5 mph - N/A   Overcast
9:36 PM 28.4 °F 23.3 °F 23.0 °F 80% 29.62 in 10.0 mi NW 4.6 mph - N/A   Overcast
9:56 PM 28.4 °F 24.6 °F 23.0 °F 80% 29.62 in 10.0 mi WNW 3.5 mph - N/A   Overcast
10:16 PM 28.4 °F 24.6 °F 23.0 °F 80% 29.62 in 10.0 mi NW 3.5 mph - N/A   Overcast
10:36 PM 28.4 °F - 21.2 °F 74% 29.61 in 10.0 mi Calm Calm - N/A   Overcast
10:56 PM 28.4 °F - 24.8 °F 86% 29.61 in 10.0 mi Calm Calm - N/A   Overcast
11:16 PM 26.6 °F - 23.0 °F 86% 29.61 in 10.0 mi Calm Calm - N/A   Overcast
11:36 PM 26.6 °F - 23.0 °F 86% 29.60 in 10.0 mi Calm Calm - N/A   Overcast
11:56 PM 26.6 °F 22.6 °F 24.8 °F 93% 29.60 in 10.0 mi North 3.5 mph - N/A   Overcast